Regional Weather Roundup
Issued by NWS

Current Version | Previous Version | Text Only | Print | Product List | Glossary Off
Versions: 1 2 3 4 5 6 7 8 9 10 11 12 13 14 15 16 17 18 19 20 21 22 23 24 25 26 27

000
ASUS44 KJAN 281610
RWRMS

MISSISSIPPI HOURLY WEATHER ROUNDUP
NATIONAL WEATHER SERVICE JACKSON MS
1000 AM CST TUE FEB 28 2017

NOTE: "FAIR: INDICATES FEW OR NO CLOUDS BELOW 12,000 FEET WITH NO
SIGNIFICANT WEATHER AND/OR OBSTRUCTIONS TO VISIBILITY.

MSZ001>002-007>008-010>013-018>021-025>028-034>036-281700-
NORTHWEST MISSISSIPPI

CITY           SKY/WX    TMP DP  RH WIND       PRES   REMARKS
BATESVILLE     PTSUNNY   67  64  88 S10       30.05S
CLEVELAND      CLOUDY    67  67 100 S14       30.03S
GREENWOOD      TSTM      68  64  87 SW15G26   30.08R VSB 3/4
GREENVILLE     CLOUDY    71  67  87 S22G28    30.02F
OLIVE BRANCH   CLOUDY   N/A N/A N/A S14       30.01S
OXFORD         CLOUDY    63  63 100 S12G17    30.08S
TUNICA         LGT RAIN  64  63  94 S14G20    30.01F
WINONA         CLOUDY    65  65  99 S12       30.09F
$$

MSZ003>006-009-014>017-022>024-029>033-037>039-281700-
NORTHEAST MISSISSIPPI

CITY           SKY/WX    TMP DP  RH WIND       PRES   REMARKS
COLUMBUS AFB   CLOUDY    64  64 100 S9        30.11S FOG
CORINTH        CLOUDY    64  61  88 S13       30.07R
STARKVILLE     CLOUDY    63  63 100 S6        30.13S
TUPELO         CLOUDY    62  60  93 S12       30.10S
$$

MSZ040-058-281700-
CENTRAL MISSISSIPPI

CITY           SKY/WX    TMP DP  RH WIND       PRES   REMARKS
JACKSON INTL   CLOUDY    74  66  76 S15G25    30.09F
JACKSON HAWKNS CLOUDY    75  65  70 S21G30    30.10F
MADISON        CLOUDY   N/A N/A N/A S12G20    30.09S
MERIDIAN KEY   CLOUDY    68  66  93 S10       30.16S
MERIDIAN NAS   CLOUDY    69  63  81 S9        30.16F
VICKSBURG VKS  MOSUNNY   75  66  73 S15G24    30.05R
$$

MSZ059>079-281700-
SOUTH MISSISSIPPI

CITY           SKY/WX    TMP DP  RH WIND       PRES   REMARKS
BROOKHAVEN     PTSUNNY   75  66  73 S15G22    30.14S
HATTIESBURG    PTSUNNY   74  68  81 S14       30.16F
LAUREL         CLOUDY    68  68 100 S7        30.16F
MCCOMB         CLOUDY    74  66  76 S15       30.12F
NATCHEZ        CLOUDY    75  64  69 S13G25    30.09S
PINE BELT      CLOUDY    70  66  88 S9        30.17F
$$

MSZ080>082-281700-
COASTAL MISSISSIPPI

CITY           SKY/WX    TMP DP  RH WIND       PRES   REMARKS
BAY ST LOUIS   CLOUDY    72  66  83 S12G17    30.18R FOG
BILOXI         NOT AVBL
PASCAGOULA     CLOUDY    75  66  73 VRB7      30.19S
GULFPORT       PTSUNNY   75  70  84 S13       30.18R
$$

LAZ007>009-015>016-023>026-281700-
NORTHEAST LOUISIANA

CITY           SKY/WX    TMP DP  RH WIND       PRES   REMARKS
BASTROP        PTSUNNY   73  70  92 S9        30.04F
TALLULAH/VBURG CLOUDY    74  65  73 S12G22    30.07S
VIDALIA        PTSUNNY   74  66  76 S18       30.09R
$$




USA.gov is the U.S. government's official web portal to all federal, state and local government web resources and services.